Regional Weather Roundup
Issued by NWS

Home | Current Version | Previous Version | Text Only | Print | Product List | Glossary Off
Versions: 1 2 3 4 5 6 7 8 9 10 11 12 13 14 15 16 17 18 19 20 21 22 23 24 25 26 27 28 29 30 31 32 33 34 35 36 37 38 39 40 41 42 43 44 45 46 47 48 49 50

000
ASUS43 KIND 230309
RWRIN

WEATHER ROUNDUP FOR INDIANA
NATIONAL WEATHER SERVICE INDIANAPOLIS IN
1100 PM EDT FRI AUG 22 2014

NOTE: "FAIR" INDICATES FEW OR NO CLOUDS BELOW 12,000 FEET WITH NO
SIGNIFICANT WEATHER AND/OR OBSTRUCTIONS TO VISIBILITY.

* - STATION DOES NOT REPORT WEATHER SUCH AS PRECIPITATION OR FOG.

+ - STATION NOT QUALITY CONTROLLED BY THE NATIONAL WEATHER SERVICE.
    USE DATA WITH CAUTION...ESPECIALLY DEWPOINT AND RELATIVE
    HUMIDITY OBSERVATIONS.

INZ001>003-010>013-019-020-230400-
NORTHWEST INDIANA

CITY           SKY/WX    TMP DP  RH WIND       PRES   REMARKS
GARY /AIRPORT/ PTCLDY    78  73  86 CALM      29.99R
KNOX *+        MOCLDY    73  70  90 SW5       29.99R
LA PORTE +     MOCLDY    73  73 100 CALM      30.00R
MICHIGAN CITY+ CLOUDY    73  73 100 CALM      29.99R
MONTICELLO +   CLEAR     74  73  97 CALM      30.00R
RENSSELAER +   CLEAR     72  72 100 CALM      30.00S
VALPARAISO     PTCLDY    75  71  87 CALM      30.00R

$$

LMZ046-743>745-230400-
SOUTHERN LAKE MICHIGAN

STATION/POSITION TIME  TEMP WIND        PRES
                       AIR  DIR/SP/G
                 (UTC) (F)  (DEG/KT/KT) (MB)
MICHIGAN CITY    0300   77   20/  1/  3   N/A

$$

INZ004-005-014>016-021>024-230400-
NORTH CENTRAL INDIANA

CITY           SKY/WX    TMP DP  RH WIND       PRES   REMARKS
GOSHEN         LGT RAIN  79  75  87 S5        29.99R FOG
LOGANSPORT +   CLOUDY    73  72  94 S3        30.02R
PERU/GRISSOM   MOCLDY    76  76 100 S5        30.01R
ROCHESTER +    CLEAR     79  73  83 CALM      30.01R
SOUTH BEND     CLOUDY    79  74  84 CALM      30.00R
WARSAW +       MOCLDY    77  73  88 CALM      30.00S

$$

INZ006>009-017-018-025>027-230400-
NORTHEAST INDIANA

CITY           SKY/WX    TMP DP  RH WIND       PRES   REMARKS
ANGOLA *+      PTCLDY    73  66  78 CALM      30.01S
AUBURN +       CLEAR     75  70  83 CALM      30.01S
FORT WAYNE     MOCLDY    76  73  91 CALM      30.01R
HUNTINGTON +   CLEAR     74  73  98 CALM      30.00S

$$

INZ028-029-035-036-043>045-051>053-230400-
WEST CENTRAL INDIANA

CITY           SKY/WX    TMP DP  RH WIND       PRES   REMARKS
GREENCASTLE +  PTCLDY    73  73 100 CALM      30.02R
LAFAYETTE      CLEAR     73  72  96 CALM      30.00R
TERRE HAUTE    CLEAR     75  73  93 CALM      29.99R

$$

INZ030>032-037>040-046>048-054>057-064-065-230400-
CENTRAL INDIANA

CITY           SKY/WX    TMP DP  RH WIND       PRES   REMARKS
CP ATTERBURY + PTCLDY    72  70  94 CALM      30.02R FOG
FRANKFORT +    CLEAR    N/A N/A N/A CALM      30.03S
INDIANAPOLIS   PTCLDY    77  70  79 CALM      30.01R
-EAGLE CREEK   PTCLDY    76  72  87 NW3       30.01R
KOKOMO *+      CLOUDY    75  72  88 SW5       30.01S
MARION +       CLEAR     70  70  98 CALM      30.01S
MT COMFORT *+  CLEAR     72 N/A N/A CALM      30.03R
SHELBYVILLE    CLEAR     76  71  85 CALM      30.01R
ZIONSVILLE +   PTCLDY    73  69  89 CALM      30.03S

$$

INZ033-034-041-042-049-050-058-059-230400-
EAST CENTRAL INDIANA

CITY           SKY/WX    TMP DP  RH WIND       PRES   REMARKS
MUNCIE         PTCLDY    74  71  91 W5        30.02R

$$

INZ060-061-067>069-081>083-085>088-230400-
SOUTHWEST INDIANA

CITY           SKY/WX    TMP DP  RH WIND       PRES   REMARKS
EVANSVILLE     MOCLDY    83  77  82 CALM      29.99R
WASHINGTON +   TSTM      78  78 100 CALM      29.99S

$$

INZ062-063-066-070>080-084-089>092-230400-
SOUTH CENTRAL AND SOUTHEAST INDIANA

CITY           SKY/WX    TMP DP  RH WIND       PRES   REMARKS
BLOOMINGTON    PTCLDY    75  73  93 SW3       30.01R
NORTH VERNON + PTCLDY    73  73 100 CALM      30.02
SEYMOUR +      MOCLDY    70  63  78 S3        30.01

$$




USA.gov is the U.S. government's official web portal to all federal, state and local government web resources and services.